Weather in Pomorie

Bulgaria     42°33′31″N   27°38′20″E
temp.,
°C
wind,
m/s
gust,
m/s
humid.,
%
clouds,
%
prec.,
mm/h
press.,
hPa
HPBL,
m
15 may, sat
sat1500:00+14w44818 0.0 1013146
03:00+14w347559 0.0 1013139
06:00+15w3374100 0.0 1012120
09:00+15wsw1173100 0.0 1013101
12:00+16ese22701 0.0 1013121
15:00+17e567945 0.0 1011159
18:00+17ese5680100 0.1 1010163
21:00+16sse1185100 1.1 101032
16 may, sun
sun1600:00+16sse2282100 0.2 101044
03:00+16nne1178100 0.2 100930
06:00+17nne227898 0.0 100833
09:00+17n2276100 0.0 100939
12:00+17ene237612 0.0 100985
15:00+17ene44766 0.0 1008136
18:00+17e457657 0.0 1008150
21:00+17se227912 0.0 100820
17 may, mon
mon1700:00+16sw22775 0.0 100845
03:00+15w45795 0.0 1008144
06:00+15w55821 0.0 1008171
09:00+17wsw68812 0.0 1009236
12:00+19w567225 0.0 100976
15:00+20sse33735 0.0 100864
18:00+20se23775 0.0 100756
21:00+20ssw457873 0.1 100846
18 may, tue
tue1800:00+18wnw4482100 0.1 100853
03:00+17w4581100 0.1 100891
06:00+17wsw458346 0.1 1008124
09:00+17w34825 0.1 1009121
12:00+19nw1184100 0.4 101038
15:00+17nnw2479100 1.4 1012200
18:00+17sse3381100 0.2 1012123
21:00+16s4487100 2.7 1013242
19 may, wed
wed1900:00+16s118390 0.1 101357
03:00+16w1183100 0.2 101353
06:00+17e1280100 0.1 101278
09:00+16ene1282100 0.6 1013136
12:00+16nne1281100 0.7 1013235
15:00+15nw3487100 2.5 1013255
18:00+16nnw4582100 1.3 1013503
21:00+14nw4585100 3.0 1015286